Location: ??????? ?????
(56.0201°N, 39.1086°E)
Time: 15:08:18
(UTC+00:00)

Daily predictions for brighter satellites

Satellite Brightness Start Highest point End
(mag) Time Altitude Azimuth Time Altitude Azimuth Time Altitude Azimuth
ATLAS 2AS CENTAUR R/B 3.1 18:55:00 10° NW 19:02:51 80° NE 19:10:04 10° ESE
Cosmos 2333 Rocket 2.5 19:02:34 10° S 19:08:00 48° ESE 19:13:29 10° NE
Cosmos 1315 Rocket 3.1 19:09:33 10° NNW 19:13:39 71° WSW 19:17:44 10° S
Cosmos 1818 3.6 19:11:13 10° SW 19:16:40 80° SE 19:22:09 10° NE
Resurs 01 Rocket 4.2 19:14:04 10° SW 19:16:47 16° W 19:19:30 10° NW
USA 215 3.7 19:11:13 10° ENE 19:17:21 40° SE 19:23:27 10° SSW
SL-16 R/B 3.5 19:13:54 10° WSW 19:19:22 46° NW 19:24:52 10° NNE
Cosmos 773 Rocket 4.0 19:14:37 10° SSW 19:19:55 76° ESE 19:25:13 10° NNE
GEOS 3 Rocket 3.7 19:14:38 10° NE 19:20:02 68° SE 19:25:25 10° SW
Cosmos 2221 2.6 19:16:31 10° N 19:20:56 81° ENE 19:25:18 10° SSE
ERS-1 Rocket 3.8 19:18:29 10° S 19:23:21 47° W 19:28:14 10° NNW
Cosmos 2278 Rocket 2.3 19:19:45 10° NW 19:25:28 80° WSW 19:31:08 10° SSE
Cosmos 1844 Rocket 4.5 19:25:32 10° NW 19:29:48 23° WSW 19:34:03 10° SSW
ATLAS 5 CENTAUR R/B 1.6 19:27:57 10° SW 19:32:16 81° SE 19:37:15 10° NE
Meteor 1-11 4.4 19:26:38 10° SSW 19:32:17 78° WNW 19:38:02 10° NNE
Cosmos 1943 Rocket 3.6 19:28:33 10° NNW 19:33:46 35° NE 19:38:56 10° ESE
Cosmos 1892 3.4 19:32:09 10° SSE 19:35:40 38° E 19:39:14 10° NNE
Nadezhda 3 Rocket 4.2 19:31:42 10° N 19:38:06 71° ENE 19:44:26 10° SSE
Cosmos 1606 4.4 19:35:16 10° N 19:38:31 25° ENE 19:41:46 10° ESE
SL-16 R/B 4.0 19:37:53 10° SE 19:40:51 15° E 19:43:49 10° ENE
SPOT 5 4.0 19:36:13 10° SSW 19:40:52 38° W 19:45:20 10° NNW
Cosmos 2056 Rocket 3.9 19:36:24 10° NNW 19:41:48 66° ENE 19:47:12 10° SE
Aureole 2 Rocket 3.3 19:39:34 10° NNW 19:42:06 30° NE 19:44:42 10° ESE
Cosmos 2154 Rocket 4.3 19:38:34 10° SSE 19:44:33 53° E 19:50:34 10° NNE
Spot 4 4.1 19:40:52 10° SSE 19:45:36 64° ENE 19:50:21 10° NNW
Lacrosse 5 rocket 1.5 19:41:51 10° W 19:46:04 77° N 19:50:00 10° E
ATLAS 5 CENTAUR R/B 2.9 19:46:15 10° WNW 19:48:10 28° N 19:50:13 10° ENE
TSX-5 4.3 19:48:37 10° NW 19:51:49 41° WSW 19:55:16 12° S
Cosmos 2074 Rocket 4.0 19:45:42 10° S 19:51:56 84° E 19:58:11 10° NNE
Cosmos 2058 3.1 19:48:51 10° S 19:52:56 58° E 19:57:01 10° NNE
USA 267 3.7 19:46:57 10° SE 19:53:14 47° SW 19:59:33 10° WNW
In-Cosmos 22 Rocket 4.2 19:48:34 10° S 19:53:49 65° E 19:59:07 10° NNE
Cosmos 1408 3.2 19:54:48 12° SSE 19:57:48 40° E 20:01:11 10° NNE
CZ-4C R/B 3.5 19:52:23 10° WNW 19:58:43 56° NNE 20:06:17 10° E
Cosmos 1680 Rocket 4.0 19:55:33 10° S 20:00:34 44° ESE 20:05:38 10° NE
Cosmos 1076 Rocket 3.6 19:59:23 10° S 20:03:34 67° E 20:07:49 10° NNE
COSMOS 2455 3.4 19:58:27 10° NW 20:04:27 59° NE 20:10:26 10° ESE
Cosmos 2322 Rocket 4.2 20:01:59 10° W 20:07:02 32° NW 20:12:06 10° NNE
Cosmos 1452 Rocket 4.3 20:03:39 10° NNW 20:08:47 47° NE 20:13:51 10° SE
JB-3 4.5 20:05:51 10° N 20:09:43 73° WNW 20:13:32 10° SSW
BREEZE-M DEB (TANK) 4.2 20:08:08 13° SSE 20:10:28 19° SE 20:16:03 10° E
Cosmos 2344 4.1 20:06:50 10° S 20:13:35 39° ESE 20:20:58 10° NE
Cosmos 2327 Rocket 4.5 20:07:56 10° S 20:14:08 85° E 20:20:17 10° NNE
Cosmos 2151 3.7 20:10:45 13° SSE 20:14:15 41° E 20:18:17 10° NNE
Helios 1A 4.2 20:11:56 10° SE 20:15:43 34° ENE 20:19:31 10° N
Cosmos 2369 Rocket 3.2 20:12:37 10° NNW 20:17:59 43° NE 20:23:20 10° ESE
Cosmos 923 Rocket 4.0 20:12:47 10° SSW 20:18:00 71° ESE 20:23:19 10° NNE
ATLAS CENTAUR R/B 3.5 20:18:25 10° W 20:19:43 12° WSW 20:21:00 10° SW
Cosmos 1980 3.8 20:15:49 10° SSW 20:21:21 60° ESE 20:26:55 10° NE
Cosmos 1151 Rocket 3.5 20:18:22 10° N 20:22:40 53° ENE 20:26:23 13° SSE
Cosmos 1933 3.9 20:19:14 10° N 20:23:09 48° ENE 20:26:35 13° SE
APEX 3.2 20:20:35 10° NNW 20:23:19 46° NE 20:25:52 11° ESE
ALOS 2 2.7 20:20:39 13° SSE 20:24:30 74° ENE 20:28:55 10° NNW
NOSS 3-4 (A) 4.2 20:19:10 10° NW 20:25:45 51° SW 20:32:22 13° SSE
NOSS 3-4 (C) 4.2 20:19:17 10° NW 20:25:52 51° SW 20:32:30 13° SSE
COSMOS 2428 3.0 20:20:29 10° SW 20:26:10 72° NW 20:31:53 10° NNE
Cosmos 1825 2.4 20:23:21 14° S 20:26:25 57° E 20:30:10 10° NNE
Cosmos 1340 4.3 20:24:54 12° SE 20:27:27 22° E 20:30:24 10° NE
Cosmos 1295 Rocket 4.5 20:22:01 11° S 20:27:59 79° E 20:34:06 10° NNE
Cosmos 371 Rocket 3.5 20:23:44 10° NNW 20:28:38 74° ENE 20:33:08 12° SE
Cosmos 44 4.5 20:26:53 14° SSE 20:29:14 21° ESE 20:32:34 10° ENE
GP-B 3.5 20:25:57 10° N 20:30:19 52° E 20:33:57 14° SSE
NOSS 0 Rocket 3.9 20:25:25 10° SSW 20:31:33 76° ESE 20:37:46 10° NE
Cosmos 1624 Rocket 4.3 20:27:05 10° NNW 20:32:16 60° WSW 20:36:39 14° S
Terra 3.9 20:33:39 10° SW 20:37:00 19° W 20:40:22 10° NW
NOSS 3-3 (A) 4.1 20:33:06 10° SW 20:39:13 89° NW 20:46:16 10° NE
NOSS 3-3 (C) 4.1 20:33:12 10° SW 20:39:19 89° NW 20:46:24 10° NE
Cosmos 2237 Rocket 2.2 20:33:57 10° SSW 20:39:38 73° ESE 20:45:21 10° NE
Cosmos 2219 Rocket 2.9 20:36:53 10° SW 20:42:23 55° NW 20:47:56 10° NNE
Cosmos 1782 3.9 20:40:48 10° N 20:44:31 37° ENE 20:47:59 11° SE
Cosmos 2360 Rocket 4.2 20:39:56 10° W 20:44:58 32° NW 20:50:02 10° NNE
Genesis I 3.6 20:43:45 12° SSW 20:47:10 45° SE 20:50:55 10° ENE
Thor Agena Rocket 3.6 20:42:26 10° NNE 20:47:37 82° WNW 20:52:41 10° SSW
CREW DRAGON DEMO-1 DEB 4.4 20:50:58 17° SSE 20:50:58 17° SSE 20:53:02 10° ESE
SL-4 R/B 0.4 20:50:50 24° SSE 20:51:52 69° ENE 20:53:57 10° NNW
Cosmos 2333 Rocket 3.2 20:46:48 10° WSW 20:52:20 48° NW 20:57:55 10° NNE
ATLAS 2AS CENTAUR R/B 3.5 20:46:25 10° NW 20:53:26 41° WSW 20:59:01 14° S
Cosmos 1346 Rocket 4.1 20:52:34 13° SE 20:55:17 27° E 20:58:40 10° NNE
USA 215 3.2 20:54:20 10° ENE 21:00:57 79° SSE 21:07:32 10° WSW
RESURS DK-1 3.2 20:58:25 10° NNW 21:02:28 49° NE 21:06:30 10° ESE
Cosmos 1515 Rocket 3.6 20:58:13 10° N 21:02:34 73° ENE 21:06:07 15° SSE
EO 1 Del DPAF 3.9 21:02:40 10° N 21:06:20 51° WNW 21:09:59 10° SW
Cosmos 2278 Rocket 4.0 21:04:54 10° WNW 21:08:43 19° W 21:12:31 10° SW
Cosmos 1328 Rocket 3.7 21:05:45 10° NNW 21:10:03 64° W 21:13:23 16° S
Cosmos 2297 4.2 21:05:16 10° NW 21:10:47 48° WSW 21:15:17 15° S
Cosmos 1766 Rocket 3.6 21:07:16 15° S 21:10:52 90° WNW 21:15:20 10° NNE
Cosmos 2218 Rocket 4.1 21:06:07 14° S 21:11:39 77° E 21:17:58 10° NNE
Okean 3 Rocket 3.7 21:09:40 14° SSW 21:13:29 77° WNW 21:17:56 10° N
Cosmos 2112 Rocket 4.3 21:08:48 10° SW 21:14:09 71° WNW 21:19:32 10° NNE
Cosmos 1606 3.5 21:10:43 10° NNW 21:14:25 43° W 21:17:19 15° SSW
Cosmos 304 Rocket 3.8 21:10:23 10° NNW 21:15:15 89° NE 21:19:36 13° SSE
Aureole 2 Rocket 3.7 21:13:22 10° NW 21:15:35 21° WSW 21:17:00 15° SW
Cosmos 1420 Rocket 4.5 21:11:09 10° NW 21:16:14 50° WSW 21:20:22 15° S
ATLAS 5 CENTAUR R/B 3.2 21:12:58 10° W 21:17:19 42° NNW 21:22:22 10° NE
Cosmos 2366 rocket 4.1 21:11:55 14° S 21:17:26 80° E 21:23:49 10° NNE
Cosmos 2228 Rocket 3.5 21:13:18 10° N 21:17:53 62° ENE 21:21:51 13° SSE
Cosmos 1943 Rocket 2.2 21:12:20 10° NW 21:18:03 75° WSW 21:23:11 13° SSE
Cosmos 158 Rocket 4.3 21:14:02 10° SW 21:18:52 61° WNW 21:23:47 10° NNE
SL-16 R/B 2.3 21:18:56 13° SSW 21:23:54 64° ESE 21:29:33 10° NE
Lacrosse 5 rocket 1.2 21:21:12 10° WNW 21:25:13 62° SSW 21:29:00 10° SE
Landsat 4 4.3 21:22:38 10° NNE 21:26:19 47° E 21:29:00 17° S
Cosmos 1633 2.9 21:27:04 17° S 21:29:37 54° E 21:33:10 10° NNE
Cosmos 2341 Rocket 4.5 21:26:53 10° SSW 21:33:01 58° WNW 21:39:10 10° N
YAOGAN 11 4.3 21:31:33 16° S 21:34:56 63° WSW 21:39:22 10° NNW
Cosmos 1331 Rocket 4.1 21:32:41 10° NNW 21:38:03 81° ENE 21:43:22 10° SSE
Cosmos 1743 Rocket 3.8 21:35:28 16° S 21:38:47 61° E 21:43:06 10° NNE
Cosmos 332 Rocket 4.3 21:34:39 10° NW 21:39:14 45° WSW 21:42:48 16° S
Meteor 2-3 Rocket 3.8 21:38:45 14° SSW 21:43:38 87° WNW 21:49:25 10° NNE
CZ-4C R/B 2.9 21:40:56 10° NW 21:47:45 75° SW 21:55:48 10° SE
Meteor 1-10 Rocket 4.3 21:42:30 10° NNW 21:48:08 78° ENE 21:53:22 12° SSE
COSMOS 2455 3.3 21:44:37 10° NW 21:50:21 45° WSW 21:55:18 14° S
Meteor 2-6 Rocket 4.2 21:45:18 10° NNW 21:50:52 88° WSW 21:55:42 13° SSE
Cosmos 1452 Rocket 4.2 21:45:59 10° NW 21:50:53 40° WSW 21:54:49 15° S
Helios 1A 3.9 21:48:16 15° SSW 21:51:16 36° W 21:55:10 10° NNW
SL-8 Rocket 4.5 21:46:22 11° SSW 21:52:15 55° WNW 21:58:19 10° N
Cosmos 405 3.5 21:49:29 10° NNW 21:52:54 46° W 21:55:20 17° SSW
Meteor 1-29 4.3 21:50:04 10° NNE 21:53:05 30° E 21:55:32 14° SSE
SL-16 R/B 3.4 21:48:52 10° SE 21:54:48 49° ENE 22:00:48 10° NNW
Cosmos 1110 Rocket 4.0 21:49:49 10° NNW 21:55:06 74° WSW 22:00:04 12° SSE
PSLV R/B 3.7 21:51:15 10° NNE 21:55:26 63° ESE 21:58:47 16° S
Cosmos 1727 Rocket 4.4 21:52:04 10° NNW 21:58:05 52° W 22:03:21 14° SSW
Cosmos 1603 4.5 21:54:33 14° S 21:58:59 40° ESE 22:04:17 10° NE
Cosmos 389 Rocket 3.5 21:56:17 10° N 21:59:42 43° ENE 22:03:02 10° SE
Cosmos 2369 Rocket 2.4 21:56:45 10° NW 22:02:12 53° WSW 22:07:04 13° S
Cosmos 1825 4.4 21:59:31 10° WSW 22:02:18 19° WNW 22:05:06 10° NNW
Resurs 1-4 Rocket 3.9 21:58:08 10° NE 22:02:19 23° E 22:06:30 10° SE
Cosmos 1408 Rocket 4.2 21:58:51 13° SSW 22:02:38 51° WNW 22:06:59 10° N
Cosmos 1340 3.4 21:59:38 13° SW 22:02:50 45° WNW 22:06:29 10° N
SeaSat 1 4.0 22:03:45 10° NE 22:07:40 23° ESE 22:11:33 10° SSE
Cosmos 44 3.1 22:05:32 10° SW 22:09:53 85° NW 22:14:27 10° NE
Cosmos 1500 Rocket 3.6 22:07:42 15° SSW 22:11:20 75° WNW 22:15:44 10° N
ADEOS II 4.5 22:11:03 10° NE 22:13:26 13° E 22:15:48 10° ESE
Helios 1B rocket 2.5 22:11:33 10° NNE 22:15:43 80° ESE 22:19:04 15° SSW
Cosmos 1934 Rocket 4.3 22:10:15 12° S 22:15:51 61° E 22:22:02 10° NNE
Cosmos 1302 Rocket 4.0 22:11:15 10° NNW 22:16:31 88° ENE 22:21:43 10° SSE
ISS -1.4 22:18:24 10° SE 22:18:32 10° SE 22:18:39 10° SE
Cosmos 1656 Rocket 3.6 22:13:24 10° NW 22:18:48 70° WSW 22:24:12 10° SSE
Meteor 1-27 Rocket 3.8 22:13:14 10° NNW 22:18:50 84° ENE 22:24:30 10° SSE
Cosmos 1782 4.1 22:17:20 10° NNW 22:20:44 28° W 22:23:34 13° SW
Cosmos 2237 Rocket 3.7 22:18:59 10° WSW 22:24:12 35° NW 22:29:27 10° NNE
Genesis I 4.3 22:21:04 10° WSW 22:24:49 44° NNW 22:28:35 10° NE
CREW DRAGON DEMO-1 DEB 3.5 22:23:18 10° WSW 22:26:08 34° S 22:28:57 10° ESE
Cosmos 1812 2.8 22:23:21 10° NNW 22:27:11 62° W 22:30:21 14° S
Cosmos 2344 3.9 22:19:48 10° WSW 22:27:19 77° NNW 22:36:20 10° NE
Cosmos 1805 Rocket 3.5 22:24:41 15° S 22:28:20 85° E 22:32:43 10° NNE
MOZ.5/SAFIR/RUBIN 5/SL-8 3.9 22:24:03 10° SSE 22:28:47 79° ENE 22:33:35 10° NNW
Cosmos 1346 Rocket 3.8 22:28:04 11° SW 22:31:33 38° WNW 22:35:16 10° N
CZ-2D R/B 3.3 22:27:16 10° NNE 22:32:07 35° E 22:37:00 10° SSE
SWARM A 4.3 22:32:09 10° N 22:35:30 71° W 22:38:12 15° S
UNK 4.0 22:31:01 10° SSE 22:35:35 69° ENE 22:40:13 10° NNW
CZ-4C R/B 3.5 22:34:46 10° SSE 22:38:46 70° ENE 22:42:35 10° NNW
CZ-4 R/B 4.1 22:35:37 10° N 22:40:14 60° WNW 22:44:35 12° SW
RESURS DK-1 3.3 22:36:43 10° NW 22:40:22 30° WSW 22:43:23 13° S
USA 215 3.4 22:37:28 10° E 22:44:05 83° N 22:50:40 10° W
USA 32 4.1 22:43:50 13° SSW 22:48:38 74° W 22:53:56 10° N
Cosmos 1707 Rocket 3.9 22:46:22 10° NNW 22:50:44 52° W 22:54:44 12° S
Lacrosse 5 4.1 22:50:50 10° SE 22:52:25 11° ESE 22:54:01 10° ESE
Gbstr 26 Del rocket 3.5 22:49:39 10° SW 22:53:21 38° SSE 22:57:39 10° E
Cosmos 44 Rocket 3.6 22:51:44 12° SSW 22:55:51 51° SE 23:00:30 10° NE
Cosmos 1441 Rocket 3.5 22:52:40 12° S 22:56:20 69° ESE 23:00:19 10° NNE
Cosmos 1943 Rocket 3.9 22:57:17 10° WNW 23:00:54 17° W 23:04:28 10° SW
Cosmos 1943 3.3 22:56:06 11° SSW 23:01:32 81° ESE 23:07:14 10° NE
Cosmos 1862 4.0 22:58:33 12° SW 23:02:07 45° WNW 23:05:59 10° N
ATLAS 5 CENTAUR R/B 3.7 22:58:20 10° WNW 23:02:57 39° N 23:08:21 10° E
Cosmos 1470 Rocket 4.2 22:59:17 10° S 23:03:37 52° E 23:08:00 10° NNE
Lacrosse 5 rocket 2.6 23:00:59 10° W 23:03:43 18° SW 23:06:18 10° S
Cosmos 972 Rocket 4.5 22:57:21 10° NNW 23:03:53 70° WSW 23:09:38 10° S
Cosmos 494 Rocket 4.1 23:00:18 11° SW 23:05:23 73° WNW 23:10:35 10° NNE
SL-16 R/B 3.4 23:03:06 10° WSW 23:08:24 38° NW 23:13:45 10° NNE
Cosmos 1862 Rocket 3.7 23:06:55 10° NNW 23:11:19 63° W 23:15:42 10° S
Cosmos 1697 Rocket 4.4 23:08:54 10° NNW 23:14:10 38° NE 23:19:23 10° ESE
Meteor 1-4 Rocket 2.6 23:11:11 10° NNW 23:14:59 79° WSW 23:18:42 10° S
Cosmos 1633 Rocket 3.1 23:11:22 11° SSW 23:15:40 79° WNW 23:20:05 10° N
BREEZE-M DEB (TANK) 4.5 23:11:45 10° SW 23:16:17 21° S 23:18:56 10° SE
SL-24 DEB 4.4 23:13:47 10° N 23:18:27 71° W 23:23:09 10° SSW
Sich 1 3.7 23:15:28 10° SW 23:19:36 45° WNW 23:23:48 10° N
NOSS 2-1 (C) 4.1 23:16:13 10° NW 23:20:48 87° SW 23:27:11 10° SE
Cosmos 2251 Rocket 4.5 23:18:24 10° S 23:23:15 40° ESE 23:28:08 10° NE
NOSS 2-1 (D) 4.1 23:20:53 10° NW 23:25:30 83° SW 23:31:59 10° SE
Meteor 1-29 4.3 23:22:50 10° N 23:25:47 28° WNW 23:28:45 10° SW
Okean 1 3.3 23:23:10 10° NNW 23:27:10 90° E 23:31:09 10° S
Cosmos 405 Rocket 4.3 23:26:13 10° SSE 23:29:40 31° E 23:33:05 10° NNE
CZ-4B R/B 3.9 23:26:06 10° NNE 23:31:17 62° ESE 23:36:17 10° S
Okean 1-7 3.2 23:29:21 10° N 23:33:47 81° ENE 23:38:12 10° SSE
Cosmos 389 Rocket 4.1 23:31:30 10° NW 23:34:10 20° W 23:36:46 10° SW
Iridium 4 Rocket 4.0 23:29:10 10° SSW 23:34:56 58° W 23:40:28 10° N
SL-4 R/B 1.7 23:32:34 10° SSW 23:35:22 46° SE 23:38:06 10° NE
CZ-4C R/B 3.9 23:29:54 10° WNW 23:35:45 27° WSW 23:42:14 10° S
Cosmos 1459 Rocket 4.4 23:32:23 10° S 23:38:20 63° E 23:44:24 10° NNE
Cosmos 1992 Rocket 4.2 23:33:21 10° NW 23:38:29 54° WSW 23:43:34 10° S
SL-16 R/B 3.0 23:32:34 10° S 23:38:31 45° W 23:44:32 10° NNW
Cosmos 1605 Rocket 4.3 23:34:56 10° SSW 23:41:14 61° WNW 23:47:29 10° N
Resurs 1-4 Rocket 2.2 23:37:24 10° NNE 23:42:45 77° WNW 23:48:04 10° SSW
Cosmos 1603 4.3 23:37:26 10° SW 23:43:01 55° NW 23:48:41 10° NNE
Cosmos 2369 Rocket 4.1 23:43:21 10° WNW 23:44:59 11° W 23:46:38 10° WSW
SeaSat 1 2.5 23:40:45 10° NNE 23:45:43 83° NW 23:50:40 10° SW
Cosmos 1269 Rocket 4.4 23:40:35 10° SW 23:45:48 59° NW 23:51:03 10° NNE
Cosmos 1933 Rocket 3.6 23:44:00 10° SSW 23:48:20 87° WNW 23:52:43 10° NNE
Helios 1B rocket 4.5 23:47:38 10° N 23:50:31 18° NW 23:53:22 10° W
Cosmos 1869 Rocket 4.5 23:47:07 10° SSE 23:51:15 46° E 23:55:25 10° NNE
Cosmos 1607 4.1 23:46:10 10° SW 23:52:21 72° SE 23:58:41 10° NE
